|
Meteor 1-28 Rocket - Orbit
|
CNYAC Observatory;
09:13:56
| Home | Info | Passes |
|
View from above orbital plane
|
View from above satellite
|
Ground track
|
The orbit data is extracted from the following two-line orbital elements,
1 10114U 77057B 13141.11242299 .00001433 00000-0 87696-4 0 9747
2 10114 097.3267 013.5923 0017759 100.1496 260.1739 15.11608356958305
| Epoch (UTC): | 21 May 2013 02:41:53 |
| Eccentricity: | 0.0017759 |
| inclination: | 97.3267° |
| perigee height: | 519 km |
| apogee height: | 543 km |
| right ascension of ascending node: | 13.5923° |
| argument of perigee: | 100.1496° |
| revolutions per day: | 15.11608356 |
| mean anomaly at epoch: | 260.1739° |
| orbit number at epoch: | 95830 |
The dashed part of the orbit path shows where the satellite is in the earth's shadow,
|
|